1377043232653,4.53440
1377043292653,4.53328
1377043352653,4.54019
1377043412653,4.56671
1377043472653,4.51321
1377043532653,4.48280
1377043592653,4.52875
1377043652653,4.54387
1377043712653,4.50379
1377043772653,4.50693
1377043832653,4.51936
1377043892653,4.51629
1377043952653,4.52767
1377044012653,4.54252
1377044072653,4.50167
1377044132653,4.53978
1377044192653,4.50203
1377044252653,4.53620
1377044312653,4.52534
1377044372653,4.49419
1377044432653,4.50077
1377044492653,4.52424
1377044552653,4.52878
1377044612653,4.51220
1377044672653,4.53199
1377044732653,4.50496
1377044792653,4.51303
1377044852653,4.51905
1377044912653,4.49346
1377044972653,4.53771
1377045032653,4.50471
1377045092653,4.52014
1377045152653,4.53524
1377045212653,4.49467
1377045272653,4.52068
1377045332653,4.50190
1377045392653,4.51081
1377045452653,4.52075
1377045512653,4.51142
1377045572653,4.52141
1377045632653,4.58511
1377045692653,4.54405
1377045752653,4.52097
1377045812653,4.51571
1377045872653,4.50106
1377045932653,4.48709
1377045992653,4.54669
1377046052653,4.57079
1377046112653,4.50196
1377046172653,4.52420
1377046232653,4.53124
1377046292653,4.53307
1377046352653,4.52117
1377046412653,4.52308
1377046472653,4.52491
1377046532653,4.50080
1377046592653,4.54412
1377046652653,4.52980
1377046712653,4.52937
1377046772653,4.50069
1377046832664,4.50985
1377046892664,4.51312
1377046952664,4.52370
1377047012664,4.51472
1377047072664,4.50012
1377047132664,4.53404
1377047192664,4.50800
1377047252664,4.54156
1377047312664,4.51821
1377047372664,4.52052
1377047432664,4.52314
1377047492664,4.53590
1377047552664,4.51249
1377047612664,4.52402
1377047672664,4.54788
1377047732664,4.51905
1377047792664,4.56061
1377047852664,4.51762
1377047912664,4.50160
1377047972664,4.53549
1377048032664,4.52760
1377048092664,4.49838
1377048152664,4.49627
1377048212664,4.51994
1377048272664,4.50284
1377048332664,4.52778
1377048392664,4.47462
1377048452664,4.52102
1377048512664,4.53115
1377048572664,4.54075
1377048632664,4.50647
1377048692664,4.53420
1377048752664,4.50074
1377048812664,4.50883
1377048872664,4.55108
1377048932664,4.49809
1377048992664,4.52508
1377049052664,4.54251
1377049112664,4.52102
1377049172664,4.49923
1377049232664,4.49482
1377049292664,4.54192
1377049352664,4.51503
1377049412664,4.52280
1377049472664,4.54160
1377049532664,4.50065
1377049592664,4.49240
1377049652664,4.54557
1377049712664,4.56560
1377049772664,4.52310
1377049832664,4.53613
1377049892664,4.50766
1377049952664,4.54929
1377050012664,4.54396
1377050072664,4.51798
1377050132664,4.52769
1377050192664,4.51065
1377050252664,4.55634
1377050312664,4.51327
1377050372664,4.49931
1377050432674,4.51371
1377050492674,4.49687
1377050552674,4.50045
1377050612674,4.51426
1377050672674,4.54732
1377050732674,4.52380
1377050792674,4.50742
1377050852674,4.52762
1377050912674,4.49779
1377050972674,4.51239
1377051032674,4.48304
1377051092674,4.51277
1377051152674,4.49197
1377051212674,4.53214
1377051272674,4.50745
1377051332674,4.50699
1377051392674,4.49562
1377051452674,4.52226
1377051512674,4.47757
1377051572674,4.50194
1377051632674,4.48320
1377051692674,4.51376
1377051752674,4.50585
1377051812674,4.51909
1377051872674,4.49548
1377051932674,4.51109
1377051992674,4.49338
1377052052674,4.49355
1377052112674,4.53691
1377052172674,4.49348
1377052232674,4.48502
1377052292674,4.51694
1377052352674,4.46228
1377052412674,4.52219
1377052472674,4.47065
1377052532674,4.48530
1377052592674,4.51610
1377052652674,4.47944
1377052712674,4.47007
1377052772674,4.49406
1377052832674,4.49335
1377052892674,4.45418
1377052952674,4.51796
1377053012674,4.47747
1377053072674,4.48095
1377053132674,4.47234
1377053192674,4.51861
1377053252674,4.53849
1377053312674,4.50939
1377053372674,4.52781
1377053432674,4.48573
1377053492674,4.50206
1377053552674,4.50342
1377053612674,4.51806
1377053672674,4.48301
1377053732674,4.48890
1377053792674,4.47345
1377053852674,4.50863
1377053912674,4.48465
1377053972674,4.50469
1377054032684,4.51076
1377054092684,4.50581
1377054152684,4.50231
1377054212684,4.49810
1377054272684,4.49361
1377054332684,4.48713
1377054392684,4.48252
1377054452684,4.53034
1377054512684,4.50670
1377054572684,4.51393
1377054632684,4.50284
1377054692684,4.51291
1377054752684,4.49456
1377054812684,4.51404
1377054872684,4.54364
1377054932684,4.47703
1377054992684,4.50285
1377055052684,4.55597
1377055112684,4.52724
1377055172684,4.54225
1377055232684,4.54901
1377055292684,4.55460
1377055352684,4.50807
1377055412684,4.50070
1377055472684,4.51650
1377055532684,4.51711
1377055592684,4.51174
1377055652684,4.53549
1377055712684,4.54118
1377055772684,4.52997
1377055832684,4.53898
1377055892684,4.52884
1377055952684,4.53909
1377056012684,4.54075
1377056072684,4.53981
1377056132684,4.54358
1377056192684,4.55751
1377056252684,4.51408
1377056312684,4.52306
1377056372684,4.56480
1377056432684,4.55918
1377056492684,4.56830
1377056552684,4.52194
1377056612684,4.54648
1377056672684,4.58628
1377056732684,4.57138
1377056792684,4.55073
1377056852684,4.57420
1377056912684,4.53805
1377056972684,4.54324
1377057032684,4.57688
1377057092684,4.57539
1377057152684,4.57844
1377057212684,4.57666
1377057272684,4.57836
1377057332684,4.59918
1377057392684,4.58908
1377057452684,4.58798
1377057512684,4.55197
1377057572684,4.58347
1377057632694,4.59511
1377057692694,4.59880
1377057752694,4.60185
1377057812694,4.60538
1377057872694,4.62086
1377057932694,4.62699
1377057992694,4.67784
1377058052694,4.61100
1377058112694,4.62998
1377058172694,4.61281
1377058232694,4.57053
1377058292694,4.60861
1377058352694,4.58310
1377058412694,4.60017
1377058472694,4.58625
1377058532694,4.61102
1377058592694,4.59100
1377058652694,4.58764
1377058712694,4.60311
1377058772694,4.58300
1377058832694,4.60673
1377058892694,4.57110
1377058952694,4.58592
1377059012694,4.62642
1377059072694,4.57010
1377059132694,4.56580
1377059192694,4.58386
1377059252694,4.57644
1377059312694,4.59963
1377059372694,4.61995
1377059432694,4.59222
1377059492694,4.57455
1377059552694,4.58642
1377059612694,4.55397
1377059672694,4.59132
1377059732694,4.57239
1377059792694,4.59475
1377059852694,4.54561
1377059912694,4.56354
1377059972694,4.59657
1377060032694,4.59500
1377060092694,4.57923
1377060152694,4.57311
1377060212694,4.56064
1377060272694,4.58377
1377060332694,4.55062
1377060392694,4.60476
1377060452694,4.58635
1377060512694,4.61717
1377060572694,4.59842
1377060632694,4.55144
1377060692694,4.60127
1377060752694,4.58796
1377060812694,4.59495
1377060872694,4.58088
1377060932694,4.56648
1377060992694,4.59911
1377061052694,4.64393
1377061112694,4.65821
1377061172694,4.65723
1377061232704,4.70314
1377061292704,4.67968
1377061352704,4.63714
1377061412704,4.62604
1377061472704,4.60158
1377061532704,4.61490
1377061592704,4.58603
1377061652704,4.58009
1377061712704,4.60040
1377061772704,4.61208
1377061832704,4.63634
1377061892704,4.60410
1377062432704,4.53508
1377062492704,4.59944
1377062552704,4.59741
1377062612704,4.55960
1377062672704,4.58693
1377062732704,4.61429
1377062792704,4.56130
1377062852704,4.58568
1377062912704,4.57538
1377062972704,4.58945
1377063032704,4.59509
1377063092704,4.58714
1377063152704,4.55563
1377063212704,4.56932
1377063272704,4.56945
1377063332704,4.60193
1377063392704,4.57784
1377063452704,4.57216
1377063512704,4.56052
1377063572704,4.56635
1377063632704,4.55597
1377063692704,4.56505
1377063752704,4.56817
1377063812704,4.54012
1377063872704,4.53451
1377063932704,4.54521
1377063992704,4.53838
1377064052704,4.54275
1377064112704,4.52259
1377064172704,4.54405
1377064232704,4.54057
1377064292704,4.53831
1377064352704,4.53837
1377064412704,4.54144
1377064472704,4.51512
1377064532704,4.53334
1377064592704,4.51157
1377064652704,4.51517
1377064712704,4.56791
1377064772704,4.53168
1377064832714,4.52701
1377064892714,4.54909
1377064952714,4.55122
1377065012714,4.52437
1377065072714,4.53864
1377065132714,4.54271
1377065192714,4.49742
1377065252714,4.54824
1377065312714,4.51765
1377065372714,4.55385
1377065432714,4.51958
1377065492714,4.54385
1377065552714,4.52126
1377065612714,4.52596
1377065672714,4.51256
1377065732714,4.54232
1377065792714,4.55220
1377065852714,4.48467
1377065912714,4.54333
1377065972714,4.52916
1377066032714,4.48190
1377066092714,4.51716
1377066152714,4.53764
1377066212714,4.53384
1377066272714,4.52736
1377066332714,4.49651
1377066392714,4.53648
1377066452714,4.52294
1377066512714,4.48349
1377066572714,4.54700
1377066632714,4.54451
1377066692714,4.51369
1377066752714,4.51438
1377066812714,4.46295
1377066872714,4.53825
1377066932714,4.53719
1377066992714,4.53528
1377067052714,4.53279
1377067112714,4.51786
1377067172714,4.52438
1377067232714,4.50059
1377067292714,4.50317
1377067352714,4.50011
1377067412714,4.47820
1377067472714,4.49464
1377067532714,4.51102
1377067592714,4.52667
1377067652714,4.55041
1377067712714,4.51757
1377067772714,4.53045
1377067832714,4.54739
1377067892714,4.55617
1377067952714,4.55881
1377068012714,4.56623
1377068072714,4.56044
1377068132714,4.52860
1377068192714,4.56041
1377068252714,4.56312
1377068312714,4.51789
1377068372714,4.53794
1377068432725,4.54434
1377068492725,4.58448
1377068552725,4.53913
1377068612725,4.52728
1377068672725,4.53064
1377068732724,4.54495
1377068792724,4.54587
1377068852724,4.54562
1377068912724,4.50678
1377068972724,4.50850
1377069032724,4.52757
1377069092724,4.54640
1377069152724,4.53317
1377069212724,4.52179
1377069272724,4.56566
1377069332724,4.57472
1377069392724,4.52174
1377069452724,4.54796
1377069512724,4.54439
1377069572724,4.51639
1377069632724,4.54476
1377069692725,4.51288
1377069752725,4.55203
1377069812725,4.52880
1377069872725,4.52371
1377069932725,4.49992
1377069992725,4.58127
1377070052724,4.57653
1377070112724,4.63699
1377070172724,4.63628
1377070232724,4.67197
1377070292724,4.72383
1377070352724,4.73994
1377070412724,4.74292
1377070472724,4.73221
1377070532724,4.74507
1377070592724,4.75634
1377070652724,4.75124
1377070712725,4.75515
1377070772724,4.75480
1377070832724,4.77050
1377070892724,4.83527
1377070952724,4.75077
1377071012724,4.79052
1377071072725,4.74541
1377071132725,4.78255
1377071192725,4.76303
1377071252725,4.73163
1377071312725,4.70420
1377071372725,4.68353
1377071432724,4.68763
1377071492724,4.65912
1377071552724,4.67043
1377071612724,4.71098
1377071672724,4.61933
1377071732724,4.61888
1377071792724,4.62471
1377071852724,4.62417
1377071912724,4.63981
1377071972724,4.63927
1377072032735,4.62648
1377072092735,4.58508
1377072152735,4.60283
1377072212735,4.64663
1377072272735,4.61696
1377072332735,4.64171
1377072392735,4.61995
1377072452735,4.60763
1377072512735,4.60955
1377072572735,4.59802
1377072632735,4.60476
1377072692735,4.63043
1377072752735,4.61622
1377072812735,4.60659
1377072872735,4.59783
1377072932735,4.56726
1377072992735,4.62444
1377073052735,4.59408
1377073112735,4.58555
1377073172735,4.62732
1377073232735,4.60178
1377073292735,4.59518
1377073352735,4.60907
1377073412735,4.59313
1377073472735,4.59052
1377073532735,4.57597
1377073592735,4.56624
1377073652735,4.58557
1377073712735,4.61482
1377073772735,4.61342
1377073832735,4.60967
1377073892735,4.58889
1377073952735,4.59008
1377074012735,4.59386
1377074072735,4.57686
1377074132735,4.57051
1377074192735,4.53949
1377074252735,4.58310
1377074312735,4.55164
1377074372735,4.57170
1377074432735,4.57093
1377074492735,4.55246
1377074552735,4.57817
1377074612735,4.54389
1377074672735,4.60035
1377074732735,4.54039
1377074792735,4.56539
1377074852735,4.53804
1377074912735,4.53054
1377074972735,4.57038
1377075032735,4.56904
1377075092735,4.55610
1377075152735,4.55153
1377075212735,4.57401
1377075272735,4.55376
1377075332735,4.59864
1377075392735,4.54931
1377075452735,4.57944
1377075512735,4.61424
1377075572735,4.57224
1377075632745,4.59978
1377075692745,4.60423
1377075752745,4.60725
1377075812745,4.57298
1377075872745,4.56647
1377075932745,4.57012
1377075992745,4.60308
1377076052745,4.61028
1377076112745,4.60587
1377076172745,4.61529
1377076232745,4.64110
1377076292745,4.64392
1377076352745,4.64071
1377076412745,4.63872
1377076472745,4.61253
1377076532745,4.62478
1377076592745,4.63156
1377076652745,4.62000
1377076712745,4.60792
1377076772745,4.59332
1377076832745,4.58801
1377076892745,4.59200
1377076952745,4.62509
1377077012745,4.58765
1377077072745,4.61078
1377077132745,4.57817
1377077192745,4.60472
1377077252745,4.59655
1377077312745,4.58493
1377077372745,4.56418
1377077432745,4.59090
1377077492745,4.60340
1377077552745,4.57842
1377077612745,4.61867
1377077672745,4.56671
1377077732745,4.59289
1377077792745,4.57823
1377077852745,4.56460
1377077912745,4.58487
1377077972745,4.57519
1377078032745,4.57489
1377078092745,4.54495
1377078152745,4.58364
1377078212745,4.56893
1377078272745,4.57929
1377078332745,4.61546
1377078392745,4.60191
1377078452745,4.57695
1377078512745,4.57606
1377078572745,4.59367
1377078632745,4.61973
1377078692745,4.72960
1377078752745,4.59725
1377078812745,4.58540
1377078872745,4.58583
1377078932745,4.55705
1377078992745,4.55364
1377079052745,4.58312
1377079112745,4.58240
1377079172745,4.57164
1377079232756,4.59928
1377079292756,4.54536
1377079352756,4.56281
1377079412756,4.56719
1377079472756,4.58144
1377079532756,4.55110
1377079592756,4.57757
1377079652756,4.58412
1377079712756,4.55979
1377079772756,4.55067
1377079832756,4.55366
1377079892756,4.53466
1377079952756,4.59338
1377080012756,4.56736
1377080072756,4.55349
1377080132756,4.56457
1377080192756,4.54457
1377080252756,4.58458
1377080312756,4.57865
1377080372756,4.51554
1377080432756,4.55812
1377080492756,4.55302
1377080552756,4.54022
1377080612756,4.55024
1377080672756,4.53719
1377080732756,4.58388
1377080792756,4.51653
1377080852756,4.58233
1377080912756,4.51315
1377080972756,4.50377
1377081032756,4.55140
1377081092756,4.54899
1377081152756,4.53727
1377081212756,4.55409
1377081272756,4.53627
1377081332756,4.50673
1377081392756,4.55613
1377081452756,4.51945
1377081512756,4.53162
1377081572756,4.56837
1377081632756,4.52718
1377081692756,4.52260
1377081752756,4.48336
1377081812756,4.55016
1377081872756,4.56431
1377081932756,4.53045
1377081992756,4.53437
1377082052756,4.55973
1377082112756,4.52633
1377082172756,4.53996
1377082232756,4.54901
1377082292756,4.50102
1377082352756,4.54060
1377082412756,4.50458
1377082472756,4.51464
1377082532756,4.54434
1377082592756,4.53468
1377082652756,4.52879
1377082712756,4.52926
1377082772756,4.52969
1377082832766,4.53015
1377082892766,4.53155
1377082952766,4.49609
1377083012766,4.52591
1377083072766,4.53464
1377083132766,4.53042
1377083192766,4.51214
1377083252766,4.52362
1377083312766,4.53158
1377083372766,4.50661
1377083432766,4.51601
1377083492766,4.51255
1377083552766,4.53547
1377083612766,4.53656
1377083672766,4.57064
1377083732766,4.53690
1377083792766,4.54756
1377083852766,4.51646
1377083912766,4.50306
1377083972766,4.50838
1377084032766,4.53546
1377084092766,4.52469
1377084152766,4.50569
1377084212766,4.51988
1377084272766,4.56903
1377084332766,4.51457
1377084392766,4.52086
1377084452766,4.55623
1377084512766,4.56758
1377084572766,4.60698
1377084632766,4.57300
1377084692766,4.61879
1377084752766,4.61974
1377084812766,4.59526
1377084872766,4.62368
1377084932766,4.64470
1377084992766,4.61251
1377085052766,4.59421
1377085112766,4.57958
1377085172766,4.58078
1377085232766,4.61315
1377085292766,4.56635
1377085352766,4.55795
1377085412766,4.55970
1377085472766,4.56894
1377085532766,4.54109
1377085592766,4.55273
1377085652766,4.60256
1377085712766,4.55886
1377085772766,4.54706
1377085832766,4.56566
1377085892766,4.54427
1377085952766,4.54997
1377086012766,4.49253
1377086072766,4.51727
1377086132766,4.52995
1377086192766,4.46971
1377086252766,4.52767
1377086312766,4.49739
1377086372766,4.51715
1377086432777,4.53635
1377086492777,4.54724
1377086552777,4.53981
1377086612777,4.51640
1377086672777,4.49075
1377086732777,4.49192
1377086792777,4.50323
1377086852777,4.50469
1377086912777,4.50295
1377086972777,4.50139
1377087032777,4.49916
1377087092777,4.48905
1377087152777,4.47546
1377087212777,4.51113
1377087272777,4.48159
1377087332777,4.51397
1377087392777,4.51711
1377087452777,4.48348
1377087512777,4.51163
1377087572777,4.50790
1377087632777,4.45870
1377087692777,4.47481
1377087752777,4.49084
1377087812777,4.48945
1377087872777,4.51294
1377087932777,4.52653
1377087992777,4.46856
1377088052777,4.49911
1377088112777,4.49423
1377088172777,4.45792
1377088232777,4.51889
1377088292777,4.47469
1377088352777,4.47424
1377088412777,4.49191
1377088472777,4.48604
1377088532777,4.48615
1377088592777,4.51389
1377088652777,4.51207
1377088712777,4.48670
1377088772777,4.50428
1377088832777,4.49922
1377088892777,4.46881
1377088952777,4.46115
1377089012777,4.50769
1377089072777,4.51896
1377089132777,4.49716
1377089192777,4.46871
1377089252777,4.51723
1377089312777,4.48402
1377089372777,4.54220
1377089432777,4.49691
1377089492777,4.48627
1377089552777,4.51219
1377089612777,4.55686
1377089672777,4.51074
1377089732777,4.49232
1377089792777,4.52453
1377089852777,4.49403
1377089912777,4.51878
1377089972777,4.53509
1377090032787,4.50032
1377090092787,4.52841
1377090152787,4.55638
1377090212787,4.54396
1377090272787,4.51011
1377090332787,4.52593
1377090392787,4.54278
1377090452787,4.52819
1377090512787,4.53341
1377090572787,4.52233
1377090632787,4.50291
1377090692787,4.51270
1377090752787,4.50606
1377090812787,4.53080
1377090872787,4.50572
1377090932787,4.50565
1377090992787,4.50849
1377091052787,4.51145
1377091112787,4.49759
1377091172787,4.50727
1377091232787,4.52154
1377091292787,4.51733
1377091352787,4.53167
1377091412787,4.52657
1377091472787,4.53034
1377091532787,4.49433
1377091592787,4.52249
1377091652787,4.49570
1377091712787,4.51947
1377091772787,4.50299
1377091832787,4.50055
1377091892787,4.52564
1377091952787,4.53969
1377092012787,4.51319
1377092072787,4.54446
1377092132787,4.53544
1377092192787,4.54441
1377092252787,4.50843
1377092312787,4.50271
1377092372787,4.51576
1377092432787,4.55969
1377092492787,4.55216
1377092552787,4.50438
1377092612787,4.54479
1377092672787,4.51653
1377092732787,4.50653
1377092792787,4.49497
1377092852787,4.49822
1377092912787,4.52302
1377092972787,4.57182
1377093032787,4.55784
1377093092787,4.51494
1377093152787,4.52335
1377093212787,4.51625
1377093272787,4.52276
1377093332787,4.54345
1377093392787,4.54112
1377093452787,4.54444
1377093512787,4.50618
1377093572787,4.51521
1377093632798,4.55502
1377093692798,4.51784
1377093752798,4.52139
1377093812798,4.56911
1377093872798,4.52847
1377093932798,4.54021
1377093992798,4.53296
1377094052798,4.50042
1377094112798,4.55592
1377094172798,4.54838
1377094232798,4.57729
1377094292798,4.57063
1377094352798,4.58460
1377094412798,4.55891
1377094472798,4.55597
1377094532798,4.53198
1377094592798,4.57745
1377094652798,4.58249
1377094712798,4.55510
1377094772798,4.57534
1377094832798,4.56904
1377094892798,4.59013
1377094952798,4.55881
1377095012798,4.52052
1377095072798,4.53868
1377095132798,4.57184
1377095192798,4.55033
1377095252798,4.57229
1377095312798,4.57195
1377095372798,4.57484
1377095432798,4.56662
1377095492798,4.55797
1377095552798,4.58315
1377095612798,4.56867
1377095672798,4.58796
1377095732798,4.59245
1377095792798,4.58309
1377095852798,4.53710
1377095912798,4.53753
1377095972798,4.56967
1377096032798,4.58942
1377096092798,4.59916
1377096152798,4.57044
1377096212798,4.57153
1377096272798,4.54499
1377096332798,4.57568
1377096392798,4.57800
1377096452798,4.57476
1377096512798,4.58306
1377096572798,4.59243
1377096632798,4.60555
1377096692798,4.57667
1377096752798,4.56785
1377096812798,4.56336
1377096872798,4.57474
1377096932798,4.58195
1377096992798,4.57977
1377097052798,4.58759
1377097112798,4.55945
1377097172798,4.55868
1377097232809,4.54490
1377097292809,4.57295
1377097352809,4.57713
1377097412809,4.55149
1377097472809,4.59711
1377097532809,4.56633
1377097592809,4.54101
1377097652810,4.56442
1377097712810,4.53583
1377097772810,4.56041
1377097832810,4.57794
1377097892810,4.56248
1377097952809,4.55919
1377098012809,4.55380
1377098072809,4.54925
1377098132809,4.57278
1377098192809,4.57787
1377098252809,4.60522
1377098312809,4.57435
1377098372809,4.58865
1377098432809,4.59037
1377098492809,4.57240
1377098552809,4.55539
1377098612809,4.57784
1377098672809,4.59306
1377098732809,4.57210
1377098792809,4.59621
1377098852809,4.60114
1377098912809,4.59069
1377098972810,4.58454
1377099032810,4.59804
1377099092810,4.59299
1377099152810,4.60653
1377099212810,4.59894
1377099272810,4.58637
1377099332809,4.57873
1377099392809,4.60579
1377099452809,4.58148
1377099512809,4.58620
1377099572809,4.58706
1377099632809,4.58247
1377099692809,4.59686
1377099752809,4.60753
1377099812809,4.60242
1377099872809,4.55625
1377099932809,4.57115
1377099992809,4.58513
1377100052809,4.58286
1377100112809,4.62215
1377100172809,4.57682
1377100232809,4.59906
1377100292809,4.56767
1377100352810,4.59114
1377100412810,4.57700
1377100472810,4.62784
1377100532810,4.61510
1377100592810,4.56391
1377100652809,4.59959
1377100712809,4.57850
1377100772809,4.61032
1377100832821,4.61169
1377100892821,4.59816
1377100952821,4.60514
1377101012821,4.58870
1377101072821,4.61248
1377101132821,4.59971
1377101192821,4.58895
1377101252821,4.56056
1377101312821,4.57965
1377101372821,4.60873
1377101432821,4.62820
1377101492821,4.59815
1377101552821,4.62328
1377101612821,4.58690
1377101672821,4.63617
1377101732821,4.63376
1377101792821,4.62595
1377101852821,4.63822
1377101912821,4.58169
1377101972821,4.59776
1377102032821,4.63898
1377102092821,4.60287
1377102152821,4.61469
1377102212821,4.61056
1377102272821,4.61307
1377102332821,4.65050
1377102392821,4.63635
1377102452821,4.60343
1377102512821,4.61254
1377102572821,4.60172
1377102632821,4.61493
1377102692821,4.57951
1377102752821,4.61723
1377102812821,4.59589
1377102872821,4.59163
1377102932821,4.60951
1377102992821,4.59821
1377103052821,4.59411
1377103112821,4.65054
1377103172821,4.63848
1377103232821,4.61303
1377103292821,4.69421
1377103352821,4.67835
1377103412821,4.65010
1377103472821,4.63553
1377103532821,4.68454
1377103592821,4.60984
1377103652821,4.67935
1377103712821,4.67581
1377103772821,4.64576
1377103832821,4.63483
1377103892821,4.65455
1377103952821,4.63490
1377104012821,4.66292
1377104072821,4.62290
1377104132821,4.63378
1377104192821,4.62657
1377104252821,4.61896
1377104312821,4.64929
1377104372821,4.62750
1377104432833,4.62573
1377104492833,4.64110
1377104552833,4.63478
1377104612833,4.63106
1377104672833,4.64023
1377104732833,4.66707
1377104792833,4.65640
1377104852833,4.66095
1377104912833,4.65935
1377104972833,4.65615
1377105032833,4.66855
1377105092833,4.64658
1377105152833,4.65855
1377105212833,4.70100
1377105272833,4.66638
1377105332833,4.66523
1377105392833,4.66809
1377105452833,4.66480
1377105512833,4.65912
1377105572833,4.67614
1377105632833,4.67168
1377105692833,4.67624
1377105752833,4.62454
1377105812833,4.64427
1377105872833,4.63151
1377105932833,4.64576
1377105992833,4.64855
1377106052833,4.61912
1377106112833,4.63212
1377106172833,4.66297
1377106232833,4.59562
1377106292833,4.64372
1377106352833,4.62041
1377106412833,4.66013
1377106472833,4.61807
1377106532833,4.63664
1377106592833,4.65739
1377106652833,4.59567
1377106712833,4.62890
1377106772833,4.61476
1377106832833,4.59550
1377106892833,4.60016
1377106952833,4.57000
1377107012833,4.61195
1377107072833,4.63541
1377107132833,4.61838
1377107192833,4.58960
1377107252833,4.60480
1377107312833,4.62565
1377107372833,4.63442
1377107432833,4.61560
1377107492833,4.64652
1377107552833,4.61189
1377107612833,4.63446
1377107672833,4.63984
1377107732833,4.65423
1377107792833,4.63457
1377107852833,4.62913
1377107912833,4.61456
1377107972833,4.61088
1377108032844,4.60620
1377108092844,4.60419
1377108152844,4.61595
1377108212844,4.62175
1377108272844,4.58692
1377108332844,4.60112
1377108392844,4.61362
1377108452844,4.61437
1377108512844,4.61162
1377108572844,4.59343
1377108632844,4.61648
1377108692844,4.57960
1377108752844,4.60011
1377108812844,4.61805
1377108872844,4.61433
1377108932844,4.58441
1377108992844,4.61232
1377109052844,4.56666